Flag for India Weather past 2 weeks in Thiruvananthapuram, Kerala, India

Now
81 °F

Thunderstorms. Overcast.


Feels Like: 87 °F
Forecast: 79 / 86 °F
Wind: No wind

Location: Thiruvananthapuram

Current Time: Sep 5, 2015 at 10:12:37 PM

Latest Report: Sep 5, 2015 at 8:10 PM


Visibility: 2 mi

Pressure: 29.86 "Hg

Humidity: 89%

Dew point: 77 °F

Location of ThiruvananthapuramLocation

Historic Weather in Thiruvananthapuram — Graph

°F

Thiruvananthapuram temperature yesterday

Maximum temperature yesterday: 86 °F (at 10:40 AM)
Minimum temperature yesterday: 77 °F (at 4:40 AM)
Average temperature yesterday: 81 °F

Past Weeks' High & Low Weather Summary

 TemperatureHumidityPressure
High90 °F (Aug 25, 2:10 PM)100% (Sep 3, 7:40 AM)29.92 "Hg (Sep 3, 7:40 AM)
Low77 °F (Aug 22, 7:10 AM)59% (Aug 27, 12:10 PM)29.68 "Hg (Sep 2, 4:40 PM)
Average83 °F80%29.81 "Hg
* Reported Aug 21 7:40 PM — Sep 5 8:10 PM, Thiruvananthapuram, Weather by CustomWeather, © 2015

Note: Actual official high and low records may vary slightly from our data, if they occured in-between our weather recording intervals... More about our weather records

Advertising

Thiruvananthapuram weather history for previous 24 hours

 ConditionsComfort  
Time TempWeatherWind HumidityBarometerVisibility
8:10 PM
Sat, Sep 5
81 °FThunderstorms. Overcast.No wind89%29.86 "Hg2 mi
6:40 PM82 °FBroken clouds.5 mph84%29.83 "Hg2 mi
5:40 PM84 °FBroken clouds.5 mph79%29.80 "Hg2 mi
4:40 PM88 °FBroken clouds.5 mph70%29.80 "Hg2 mi
3:40 PM90 °FBroken clouds.5 mph67%29.77 "Hg3 mi
3:10 PM90 °FPassing clouds.7 mph67%29.80 "Hg4 mi
2:10 PM90 °FPassing clouds.6 mph67%29.80 "Hg4 mi
1:40 PM90 °FPassing clouds.8 mph67%29.80 "Hg4 mi
12:40 PM88 °FPassing clouds.7 mph70%29.86 "Hg5 mi
11:40 AM88 °FPassing clouds.6 mph70%29.89 "HgN/A
11:10 AM86 °FPassing clouds.5 mph75%29.89 "HgN/A
10:40 AM86 °FScattered clouds.6 mph75%29.89 "HgN/A
9:40 AM86 °FScattered clouds.7 mph75%29.92 "Hg5 mi
8:40 AM84 °FHaze.6 mph74%29.92 "Hg3 mi
7:10 AM79 °FFog.3 mph84%29.86 "Hg1 mi
6:40 AM79 °FFog.No wind84%29.86 "Hg1 mi
6:10 AM79 °FHaze.No wind84%29.86 "Hg1 mi
5:40 AM77 °FPassing clouds.No wind89%29.86 "Hg2 mi
4:40 AM77 °FPassing clouds.No wind89%29.83 "Hg2 mi
4:10 AM77 °FPassing clouds.No wind89%29.83 "Hg2 mi
1:40 AM77 °FPartly cloudy.No wind89%29.83 "Hg2 mi
12:40 AM77 °FPartly cloudy.2 mph89%29.86 "Hg2 mi
12:10 AM77 °FPartly cloudy.3 mph89%29.86 "Hg2 mi
11:40 PM
Fri, Sep 4
77 °FPartly cloudy.No wind89%29.89 "Hg2 mi
11:10 PM77 °FPartly cloudy.No wind89%29.89 "Hg2 mi
10:40 PM79 °FPartly cloudy.No wind89%29.89 "Hg2 mi
10:10 PM79 °FPartly cloudy.No wind89%29.89 "Hg2 mi
Weather by CustomWeather, © 2015

See weather overviewHow to use our weather pages